Tracking 28766 objects as of 14-Apr-2024
HD Live streaming from Space Station
objects crossing your sky now

GRBALPHA

Track GRBALPHA now!
10-day predictions
GRBALPHA is classified as:


NORAD ID: 47959
Int'l Code: 2021-022AD
Perigee: 494.6 km
Apogee: 515.6 km
Inclination: 97.5 °
Period: 94.6 minutes
Semi major axis: 6876 km
RCS: Unknown
Launch date: March 22, 2021
Source: (TBD)
Launch site: TYURATAM MISSILE AND SPACE COMPLEX (TTMTR)

Uplink (MHz): 145.905
Downlink (MHz): 437.025
Beacon (MHz): 437.025
Mode: 9k6GFSK Digipeater CW
Call sign: OM9GRB
Status: Active

Your satellite tracking list
Your tracking list is empty




NASA's NSSDC Master Catalog

Two Line Element Set (TLE):
1 47959U 21022AD  24104.82852778  .00018979  00000-0  81560-3 0  9996
2 47959  97.4669   3.6964 0015313  13.1689 346.9944 15.22606844167603
Source of the keplerian elements: AMSAT